Flag for Norway Weather past 2 weeks in Longyearbyen, Svalbard, Norway

Now
48 °F

Partly sunny.


Feels Like: 47 °F
Forecast: 45 / 49 °F
Wind: 3 mph from West

Location: Svalbard Lufthavn

Current Time: Aug 4, 2015 at 11:04:40 PM

Latest Report: Aug 4, 2015 at 8:50 PM


Visibility: N/A

Pressure: 30.18 "Hg

Humidity: 82%

Dew point: 43 °F

Location of LongyearbyenLocation

Historic Weather in Longyearbyen — Graph

°F

Longyearbyen temperature yesterday

Maximum temperature yesterday: 57 °F (at 10:50 AM)
Minimum temperature yesterday: 48 °F (at 10:50 PM)
Average temperature yesterday: 52 °F

Past Weeks' High & Low Weather Summary

 TemperatureHumidityPressure
High64 °F (Jul 30, 4:50 PM)87% (Jul 25, 3:50 AM)30.21 "Hg (Jul 25, 3:50 AM)
Low39 °F (Jul 28, 4:50 PM)31% (Jul 31, 2:50 PM)29.59 "Hg (Jul 24, 7:50 AM)
Average50 °F64%29.98 "Hg
* Reported Jul 20 8:50 PM — Aug 4 8:50 PM, Longyearbyen, Weather by CustomWeather, © 2015

Note: Actual official high and low records may vary slightly from our data, if they occured in-between our weather recording intervals... More about our weather records

Advertising

Longyearbyen weather history for previous 24 hours

 ConditionsComfort  
Time TempWeatherWind HumidityBarometerVisibility
8:50 PM
Tue, Aug 4
48 °FPartly sunny.3 mph82%30.18 "HgN/A
7:50 PM48 °FBroken clouds.5 mph82%30.18 "HgN/A
6:50 PM50 °FPartly sunny.3 mph71%30.18 "HgN/A
5:50 PM50 °FPartly sunny.8 mph71%30.21 "HgN/A
4:50 PM50 °FPartly sunny.3 mph71%30.21 "HgN/A
3:50 PM50 °FPartly sunny.5 mph71%30.21 "HgN/A
2:50 PM50 °FPartly sunny.5 mph71%30.21 "HgN/A
1:50 PM48 °FPartly sunny.5 mph76%30.21 "HgN/A
12:50 PM48 °FPartly sunny.6 mph82%30.21 "HgN/A
11:50 AM48 °FPartly sunny.8 mph82%30.21 "HgN/A
10:50 AM48 °FPartly sunny.8 mph82%30.21 "HgN/A
9:50 AM48 °FPartly sunny.9 mph82%30.21 "HgN/A
8:50 AM48 °FPartly sunny.10 mph82%30.18 "HgN/A
7:50 AM48 °FPartly sunny.10 mph82%30.18 "HgN/A
6:50 AM46 °FPartly sunny.10 mph87%30.18 "HgN/A
5:50 AM48 °FPartly sunny.12 mph82%30.18 "HgN/A
4:50 AM48 °FPartly sunny.10 mph82%30.18 "HgN/A
3:50 AM48 °FPartly sunny.12 mph82%30.18 "HgN/A
2:50 AM48 °FPartly sunny.12 mph82%30.18 "HgN/A
1:50 AM48 °FBroken clouds.12 mph82%30.15 "HgN/A
12:50 AM48 °FLow clouds.13 mph82%30.15 "HgN/A
11:50 PM
Mon, Aug 3
48 °FPartly sunny.14 mph82%30.15 "HgN/A
Weather by CustomWeather, © 2015

See weather overviewHow to use our weather pages